Location: Ballingbuur
(53.0000°N, 5.7667°E)
Time: 19:41:00
(UTC+00:00)

Cosmos 1356 - Pass Details

Date: 14 April 2021
Orbit: 438 x 442 km, 81.1° (Epoch: 13 May)

Event Time Altitude Azimuth Distance (km) Brightness Sun altitude
Rises 21:57:22 0° 328° (NNW) 2,453 8.6 -23.7°
Reaches altitude 10° 22:00:39 10° 294° (WNW) 1,573 6.8 -24.0°
Maximum altitude 22:01:48 11° 274° (W) 1,487 6.4 -24.0°
Enters shadow 22:02:43 11° 258° (WSW) 1,539 6.2 -24.1°
